Preview of NWS' New Version of Forecast
This preview is not operational and should not be used for support decisions.

Regional Weather Roundup (RWR)

Issued by Gray - Portland, ME (GYX)

                            
313 
ASUS41 KGYX 192305
RWRGYX
WEATHER ROUNDUP FOR MAINE AND NEW HAMPSHIRE
NATIONAL WEATHER SERVICE GRAY ME
700 PM EDT THU APR 19 2018

MEZ002-005-006-010-012-015-018-020-021-024-026-027-029-200000-
MAINE
  
CITY           SKY/WX    TMP DP  RH WIND       PRES   REMARKS
PORTLAND       LGT RAIN  40  36  86 NW13G21   29.71R                  
SANFORD        LGT RAIN  40  36  86 NW12      29.72R                  
BAR HARBOR     LGT RAIN  40  36  86 CALM      29.68R                  
WISCASSET      CLOUDY    41  38  89 W5        29.71R                  
ROCKLAND       LGT RAIN  41  38  89 CALM      29.69R                  
FRYEBURG       CLOUDY    38  36  92 CALM      29.72R                  
LEWISTONAUBURN CLOUDY    42  31  64 N9        29.71R                  
AUGUSTA        LGT RAIN  41  30  65 N14       29.70R                  
WATERVILLE     CLOUDY    41  30  65 N10       29.68R                  
BANGOR         LGT RAIN  43  34  70 W5        29.68R                  
GREENVILLE       N/A     35  29  78 NW9       29.65R                  
MILLINOCKET    CLOUDY    44  26  49 CALM      29.68R                  
HOULTON        CLOUDY    40  32  73 CALM      29.65S                  
PRESQUE ISLE   NOT AVBL                                               
FRENCHVILLE    CLOUDY    41  29  62 N8        29.67R                  
CARIBOU        CLOUDY    40  30  67 N6        29.66R                  
$$

NHZ002-005-008-009-011-012-014-200000-
NEW HAMPSHIRE
  
CITY           SKY/WX    TMP DP  RH WIND       PRES   REMARKS
PORTSMOUTH     MOCLDY    43  34  71 NW9       29.69R                  
ROCHESTER      LGT RAIN  41  33  73 NW13      29.70R                  
NASHUA         MOCLDY    43  35  73 NW12      29.74R                  
MANCHESTER     MOCLDY    46  30  53 NW8       29.72R                  
CONCORD        CLOUDY    42  31  64 NW14G21   29.73R                  
LACONIA        CLOUDY    40  29  64 NW8       29.73R                  
PLYMOUTH       FAIR      39  30  72 W9        29.74R                  
BERLIN         LGT SNOW  35  30  82 NW6       29.72R                  
WHITEFIELD     LGT SNOW  35  31  85 CALM      29.74R FOG              
JAFFREY        LGT RAIN  39  33  79 VRB7      29.74R                  
KEENE          LGT RAIN  37  32  82 N10G23    29.78R                  
LEBANON        MOCLDY    40  26  57 NW7G17    29.77R                  
MT WASHINGTON  SNOW      14  14 100 W28G35      N/A  VSB 0   WCI  -6  
$$

VTZ005-007-008-200000-
VERMONT
  
CITY           SKY/WX    TMP DP  RH WIND       PRES   REMARKS
ST JOHNSBURY     N/A     36  32  85 MISG      29.75R                  
MONTPELIER     LGT SNOW  32  31  96 NW8       29.81R FOG              
BURLINGTON     LGT RAIN  38  31  76 NW12      29.82R FOG              
$$

MAZ007-012-024-CTZ003-RIZ002-NYZ038-NYZ072-200000-
SOUTHERN NEW ENGLAND AND NY
  
CITY           SKY/WX    TMP DP  RH WIND       PRES   REMARKS
BOSTON         MOCLDY    43  35  73 NW16      29.73R                  
WORCESTER      CLOUDY    37  33  85 W14       29.72S                  
NANTUCKET      MOCLDY    40  40 100 NW5       29.73R                  
PROVIDENCE     MOCLDY    43  38  82 W10       29.75R                  
HARTFORD       MOCLDY    42  28  57 NW16G23   29.79R                  
ALBANY         MOCLDY    41  25  53 NW17G25   29.85R                  
NEW YORK CITY  MOCLDY    46  27  47 NW21G33   29.86R                  
$$

ANZ081-ANZ082-ANZ150-NHZ014-MEZ023>029-200000-
COASTAL MARINE OBSERVATIONS
  
STATION/POSITION TIME  TEMP    WIND        PRES    WAVE
                       AIR SEA DIR/SP/G            HT/PER
                 (UTC) (F)     (DEG/KT/KT) (MB)    (FT/S)
MOUNT DESERT ROC 2200   37     270/  4/  5 1005.2F
MATINICUS ROCK   2200   38     260/  8/  9 1004.6R
ISLE OF SHOALS   2200   42     250/  8/  8 1005.5R
JEFFREYS LEDGE   2236      41                N/A     3/ 8
CASHES LEDGE BUO 2250   37 40              1005.7R   3/ 9
$$

.............KEY..............
   WCI - WIND CHILL
   TC  - TEMPERATURE IN CELSIUS
   VSB - VISIBILITY IN MILES
   HX  - HEAT INDEX
   FAIR- INDICATES FEW OR NO CLOUDS BELOW 12,000 FT, WITH NO 
         SIGNIFICANT WEATHER AND/OR OBSTRUCTIONS TO VISIBILITY.